OPS 4682 DEB, 19242

Orbit data source: Space-Track

OPS 4682 DEB, 19242 is space debris in LEO originally from a launch on Sat, 03 Apr 1965 UTC launched from the Air Force Western Test Range (AFWTR). Debris objects in space refer to the collection of defunct objects orbiting the Earth. Examples of debris include non-operational satellites, rocket bodies, and fragments generated from explosions, collisions, or faulty payload assembly.

Loading next visibility...
Identifier
19242, 1965-027AS
Orbit
LEO
Country
Flag of USUS
Related business
Manufacturer
Unknown
Mission
Spacecraft
Bus & Motor
Unknown
Mass
Unknown
Launch date (UTC)
1965-04-03 (61 years ago)
Launch vehicle
Unknown
Launch site
Air Force Western Test Range (AFWTR)
Object type
Payload
Rocket body
Debris
Shape & HBR
Unknown shape, 0.1 m
Radar Cross Section
Small (<0.1 m²)

Expand to show TLE details & history
Last TLE update: 20 hours ago

TLE from 20 hours ago
0 OPS 4682 DEB
1 19242U 65027AS  25340.38538475 -.00000349  00000-0 -11541-2 0  9997
2 19242  90.2578  21.4153 0027146 260.0937 117.0105 13.01663670612247
Epoch: 2025-12-06T09:14Z
TLE epoch observation values (Epoch: 2025-12-06T09:14:57.242Z)
Latitude
17.36784°
Longitude
167.18268°
Altitude
1,267.336 km
Speed
7.219 km/s
True Right ascension
01h 25m 20s
True Declination
17° 16' 36"
Sunlit
Object was in full shadow at epoch
Visualization orbit readout
Latitude
Unknown
Longitude
Unknown
Altitude
Unknown
Speed
Unknown
Apparent Right ascension
Unknown
Apparent Declination
Unknown
Sunlit
N/A
Visualization observer readout
Local Sidereal Time
03:27:30
Azimuth
Unknown
Elevation
Unknown
Doppler factor
Unknown
Orbital elements
Apogee altitude
1,273.414 km
Perigee altitude
1,231.985 km
Semi-major axis
7,630.837 km
Eccentricity
0.00271
Inclination
90.2578°
RAAN
21.4153°
Arg. of periapsis
260.0937°
True anomaly
117.28721°
Mean anomaly
117.0105°
Eccentric anomaly
117.1489°
Mean motion
3.256 °/min
Orbital period
110.56 mins
BSTAR
-0.0011541
Loading maneuver chart data...
Computing Atmospheric mass density...
Loading historical data...
Loading historical data...
Loading historical data...
Loading historical data...
Loading historical data...
Loading historical data...
Loading historical data...

Documentation

Showing up to 5 results
|